Satellite-Ground Cal/Val Site Overpasses Predictions

Prediction of Satellite NPP Overpassing Cal/Val Site: Antarctic Dome C

Ground Cal/Val Site Location: Latitude: -75.10, Longitude: 123.35; Satellite-Ground Site NADIR distance within 100 km.

Table of predicted overpasses for the next 14.0 days since TLE Epoch: 8/9/2019
Interval Starting Time Ending Time Minimum Distance Time Minimum Distance (km)
1 08/10/2019 14:48:59 08/10/2019 14:49:28 08/10/2019 14:49:14 13.38
2 08/12/2019 07:31:49 08/12/2019 07:32:18 08/12/2019 07:32:04 3.19
3 08/15/2019 14:55:17 08/15/2019 14:55:46 08/15/2019 14:55:31 23.16
4 08/16/2019 14:36:34 08/16/2019 14:36:49 08/16/2019 14:36:42 83.94
5 08/17/2019 07:38:07 08/17/2019 07:38:35 08/17/2019 07:38:21 35.81
6 08/18/2019 07:19:21 08/18/2019 07:19:40 08/18/2019 07:19:31 74.17
7 08/20/2019 15:01:36 08/20/2019 15:01:59 08/20/2019 15:01:48 60.14
8 08/21/2019 14:42:46 08/21/2019 14:43:12 08/21/2019 14:42:59 49.05
9 08/22/2019 07:44:27 08/22/2019 07:44:47 08/22/2019 07:44:37 70.97


NCC Satellite Cal/Val Overpasses Prediction Service
